SL-24 R/B

Satellite information

Favourite Embed

Satellite Type and Status

ROCKET BODYIN ORBIT

Key statistics

Satellite SL-24 R/B at a glance.

Uptime

6596

Days in orbit

Revolutions

≈ 14.1

Per day

Orbit

SSO

Sun Synchronous Orbit

Inclination

98.1

Latest

Satellite identification and parameters

Extended collection of information and parameters for SL-24 R/B.

Object identification

Identified? True

Debris? False

Object name: SL-24 R/B

International designator: 2007-012G

Object number (NORAD): 31123

Object ID (CCSDS): 31123

Country: COMMONWEALTH OF INDEPENDENT STATES (CIS)

Current information (Y/N): Y

RCS size: LARGE

Orbital parameters

Period: 101.883 minutes

Inclination: 98.0659 deg

SMA: 7225.955 km

Apoapsis: 1072.261 km

Periapsis: 623.378 km

RAAN: 8.009 deg

Eccentricy: 0.0310605

Argument of periapsis: 144.2962 deg

Mean anomaly: 228.8903 deg

Mean motion: 14.13383161 rev/day

Mean motion (dot): 0.00000131 rev/day2

B* drag term: 0.000057659 1/REarth

Two-line elements (TLE)

Creation date: May 8, 2025, 3:01 a.m.

Reference frame: TEME

Reference center: EARTH

Epoch: May 7, 2025, 9:28 p.m. UTC

TLE line 0: 0 SL-24 R/B

TLE line 1: 1 31123U 07012G 25127.89509388 .00000131 00000-0 57659-4 0 9998

TLE line 2: 2 31123 98.0659 8.0090 0310605 144.2962 228.8903 14.13383161930969

Live tracking on map

Real-time ground track for satellite SL-24 R/B.

In-orbit conjunctions

A list of the most updated potential collisions computed for object SL-24 R/B.

Target Orbit TCA Probability of collision Miss distance Type
FENGYUN 1C DEB SSO 2025-02-09 04:46:06 0.0003114876 97.0 (m) DEBRIS
SPOT 5 SSO 2024-11-23 01:32:53 0.0004085705 483.0 (m) PAYLOAD
THOR ABLESTAR DEB LEO 2024-07-07 05:38:36 0.0001179213 859.0 (m) DEBRIS
COSMOS 1275 DEB LEO 2024-06-05 10:25:44 0.0001131107 368.0 (m) DEBRIS

Associated space launch

Rideshare mission with Egyptian and Saudi Arabian Earth observation satellites as well as 14 American cubesats

SL-24 R/B was lifted into orbit during the mission ‘Dnepr | EgyptSat 1 & Saudisat 3’, on board a Dnepr space rocket.

The launch took place on April 17, 2007, 6:46 a.m. from 109/95.

For more information about the launch, click the button.

Launch to space Dnepr | EgyptSat 1 & Saudisat 3
Dnepr | EgyptSat 1 & Saudisat 3

Agency: N/A

Status: Launch Successful

Launch date: April 17, 2007, 6:46 a.m. UTC

Rocket: Dnepr

Launch pad: 109/95

Location: Baikonur Cosmodrome, Republic of Kazakhstan

...

Latest news about this satellite

There are no fresh news available about this satellite. Check back as we update our databases every day.


Newsletter sign-up

Weekly statistics, charts and insights to help you stay on top of the space industry.